Regional Weather Roundup
Issued by NWS

Home | Current Version | Previous Version | Graphics & Text | Print | Product List | Glossary On
Versions: 1 2 3 4 5 6 7 8 9 10 11 12 13 14 15 16 17 18 19 20 21 22 23 24 25 26 27 28 29 30 31 32 33 34 35 36 37 38 39 40 41 42 43 44 45 46 47 48 49 50
000
ASUS43 KFSD 241902
RWRSD

WEATHER ROUNDUP FOR SOUTH DAKOTA
NATIONAL WEATHER SERVICE SIOUX FALLS SD
100 PM CST SAT FEB 24 2018

NOTE: "FAIR" INDICATES FEW OR NO CLOUDS BELOW 12,000 FEET WITH NO
SIGNIFICANT WEATHER AND/OR OBSTRUCTIONS TO VISIBILITY.


SDZ001>005-009-010-012>017-242000-
NORTHWEST AND NORTH CENTRAL SOUTH DAKOTA

CITY           SKY/WX    TMP DP  RH WIND       PRES   REMARKS
BUFFALO          N/A     21  10  62 W15       29.62F WCI   8
FAITH            N/A     15  10  80 NW6       29.71F WCI   6
MOBRIDGE       LGT SNOW  18  13  80 NW7       29.75F VSB 3/4 WCI   9
$$

SDZ012>016-024>037-041>051-057-063-072>074-242000-
SOUTHWEST AND SOUTH CENTRAL SOUTH DAKOTA

CITY           SKY/WX    TMP DP  RH WIND       PRES   REMARKS
RAPID CTY ARPT SUNNY     26  14  60 N28G36    29.68F WCI  10
PIERRE         LGT SNOW  15  12  88 E6        29.75F VSB 1   WCI   6
CUSTER         MOSUNNY   26   0  32 W8        29.59F WCI  18
ELLSWORTH AFB  SUNNY     28  13  52 N22       29.67F WCI  14
PHILIP         CLOUDY    20  15  81 NW12      29.73F WCI   8
PINE RIDGE     CLOUDY    25  13  60 W10       29.72F WCI  15
SPEARFISH        N/A     27  10  50 NW14G22   29.69F WCI  15
WINNER         CLOUDY    20  13  74 S7        29.70F WCI  11
$$

SDZ004>011-016>023-039-040-242000-
NORTHEAST SOUTH DAKOTA

CITY           SKY/WX    TMP DP  RH WIND       PRES   REMARKS
ABERDEEN       SNOW      17  13  84 E6        29.84F VSB 1/4 WCI   9
WATERTOWN      LGT SNOW  19  17  92 E8        29.77F VSB 3/4 WCI   9
BROOKINGS      LGT SNOW  22  17  81 E13       29.74F WCI  10
SISSETON         N/A     17  13  84 SE8       29.87F WCI   7
$$

SDZ017-020-022-023-036>040-048>070-242000-
SOUTHEAST SOUTH DAKOTA

CITY           SKY/WX    TMP DP  RH WIND       PRES   REMARKS
SIOUX FALLS    LGT SNOW  20  17  88 E12       29.77F VSB 1   WCI   8
HURON          SNOW      19  17  92 CALM      29.78F VSB 1/2
CHAMBERLAIN    CLOUDY    17  13  82 E8        29.74F WCI   7
MITCHELL       CLOUDY    19  16  88 CALM      29.79F
YANKTON        CLOUDY    23  18  81 E9        29.78F WCI  13
$$

ABBREVIATIONS USED IN REMARKS
   TC - TEMPERATURE IN CELSIUS
  WCI - WIND CHILL INDEX
   HX - HEAT INDEX
  VSB - VISIBILITY





USA.gov is the U.S. government's official web portal to all federal, state and local government web resources and services.